2024-169B (61190 NORAD) Tracking and Keplerian Element Data

This shows tracking and keplerian element data for the satellite.

Feedback or suggestion? Click here.




ElementValue
Catalog61190
Name2024-169B
Epoch Orbit342
Epoch Day286.89734754
Epoch Year2024
RAAN12.0449
Inclination97.5872
Eccentricity0.0009454
Argument of Perigee189.8921
Mean Anonmoly170.2123
Mean Motion15.09224624
Decay Rate0.00015111
L11 61190U 24169B 24286.89734754 .00015111 00000+0 95175-3 0 9996
L22 61190 97.5872 12.0449 0009454 189.8921 170.2123 15.09224624 3427



Live tracking and technical data element details for 2024-169B (NORAD 61190). 2024-169B can be tracked NOW for your location showing map with azimuth and elevation plus other details from your city location.







IsCatalogInMostPopularTable: catalog: 61190, numindb: 25
Update: records affected: 1



GetName: 61190 2024-169B

Hit Count: updated at: Fri, 06 Dec 2024 10:44:00 GMT